THOR ABLESTAR DEB, 3124

Orbit data source: Space-Track

THOR ABLESTAR DEB, 3124 is space debris in LEO originally from a launch on Thu, 29 Jun 1961 UTC launched from the Air Force Eastern Test Range (AFETR). Debris objects in space refer to the collection of defunct objects orbiting the Earth. Examples of debris include non-operational satellites, rocket bodies, and fragments generated from explosions, collisions, or faulty payload assembly.

Loading next visibility...
Identifier
3124, 1961-015HX
Orbit
LEO
Country
Flag of USUS
Related business
Manufacturer
Unknown
Mission
Spacecraft
Bus & Motor
Unknown
Mass
Unknown
Launch date (UTC)
1961-06-29 (65 years ago)
Launch vehicle
Unknown
Launch site
Air Force Eastern Test Range (AFETR)
Object type
Payload
Rocket body
Debris
Shape & HBR
Unknown shape, 0.1 m
Radar Cross Section
Small (<0.1 m²)

Expand to show TLE details & history
Last TLE update: 5 hours ago

TLE from 5 hours ago
0 THOR ABLESTAR DEB
1  3124U 61015HX  26120.14894448  .00001637  00000-0  17371-2 0  9994
2  3124  66.9873  32.8855 0308741 114.1909 249.1754 13.57702771162629
Epoch: 2026-04-30T03:34Z
TLE epoch observation values (Epoch: 2026-04-30T03:34:28.803Z)
Latitude
0.00004°
Longitude
121.1658°
Altitude
1,133.668 km
Speed
7.243 km/s
True Right ascension
02h 11m 32s
True Declination
0° 00' 00"
Sunlit
Object was in daylight at epoch
Visualization orbit readout
Latitude
Unknown
Longitude
Unknown
Altitude
Unknown
Speed
Unknown
Apparent Right ascension
Unknown
Apparent Declination
Unknown
Sunlit
N/A
Visualization observer readout
Local Sidereal Time
15:37:25
Azimuth
Unknown
Elevation
Unknown
Doppler factor
Unknown
Orbital elements
Apogee altitude
1,271.552 km
Perigee altitude
813.345 km
Semi-major axis
7,420.585 km
Eccentricity
0.03087
Inclination
66.9873°
RAAN
32.8855°
Arg. of periapsis
114.1909°
True anomaly
245.91515°
Mean anomaly
249.1754°
Eccentric anomaly
247.54062°
Mean motion
3.39536 °/min
Orbital period
106.03 mins
BSTAR
0.0017371
Loading maneuver chart data...
Computing Atmospheric mass density...

Documentation

Showing up to 5 results
|